Погода в Елеце

Погода в Елеце : погода сейчас, прогноз погоды и архив. Всё, что Вы хотите узнать о погоде в Елеце!

Хотите узнать прогноз погоды в Елеце? Тогда Вам сюда: Погода в Елеце

Поиск расширенной информации на нашем сайте:

Другие новости

Новости СМИ2

Главная страница сайта

Новости сайта

02.10.2013

Напоминаем, что на нашем новом сайте вы можете получить высокодетализированные прогнозы погоды по пунктам России, СНГ и мира (включающие важные для авиации метеовеличины, такие как направление и скорость ветра, видимость, явления погоды, количество и форма облачности, нижняя и верхняя граница облачности), а также ознакомиться с разнообразными материалами по авиационной метеорологии и подборкой полезных ссылок на эту тему.

Сайт Метеоцентр.Азия посвящён разработке технологий оптимизации авиаметеорологического обслуживания, включая проектирование и перспективное создание нескольких автоматизированных авиаметеорологических систем:
- система выпуска высокодетальных прогностических карт явлений погоды для нижнего воздушного пространства по России и ближнему зарубежью;
- система верификации прогнозов TAF (выпускаемых синоптиками официальных АМСГ РФ и ближнего зарубежья) и AUTOTAF (выпускаемых сайтом Метеоцентр.Азия) - выявление ошибок, онлайн-сопоставление с фактической погодой METAR, автоматическое внесение коррективов в прогнозы при резком отклонении фактической погоды от прогноза, подсчёт оправдываемости прогнозов по элементам и в целом;
- система обработки, анализа и отображения авиаметеорологической информации для применения провайдерами метеорологической информации.

Рекомендуем: Гусь хрустальный люстры магазин.

Погода в Елеце - сегодня

Время (UTC), дата Ветер
(°,м/с) 
Видим.   Явления Облачность Т
(°С)
Тd
(°С)
f(%) Тe
(°С)
Pmin
(гПа)
dP
(гПа)
Po
(мм)
O2
(г/м3)
Тmin Tmax R s Состояние
почвы
00 25.04.17 210 (ЮЗ) 4000 м  дымка  ясно 
-0.4 -2.2 88 1014.1  1.5  745  301           
03 25.04.17 210 (ЮЗ) 4000 м  дымка  ясно 
-1.3 -3.2 87 -1  1016.1  746  303  -1.7        замёрзшая 
06 25.04.17 240 (ЮЗ) 10 км    ясно 
+6.9 -2.4 51 +7  1018  2.4  748  294           
09 25.04.17 270 (З) 4{10}  10 км    8/8 600 м 
[Cu med, cong]
+11.4 -9.8 22 +11  1018.4  0.7  749  290           
12 25.04.17 240 (ЮЗ) 10 км    9/8 600 м кучево-дожд., верхняя 
[Cb calv|Ci fib]
+12.2 -11.7 18 +12  1018.7  0.3  749  290           
15 25.04.17 240 (ЮЗ) 3{10}  10 км    8/5 600 м средняя 
[Cu med, cong|Ac trans]
+11.3 -7.4 26 +11  1018.9  0.2  749  291    +13.2       
18 25.04.17 210 (ЮЗ) 10 км    3/0 средняя 
[Ac trans]
+7.3 -4.4 43 +7  1020.8  1.6  750  295           
21 25.04.17 180 (Ю) 10 км    8/8 600 м 
[Sc]
+4.9 -2.7 58 +5  1021.6  0.6  751  297           
00 26.04.17 200 (Ю) 10 км    10/10 600 м 
[Sc]
+6.7 -0.9 58 +7  1021.2  -0.2  751  295           
03 26.04.17 200 (Ю) 10 км    9/0 верхняя 
[Ci sp]
+6 -1.2 60 +5  1021.4  751  296  +4.4        сухая 
06 26.04.17 200 (Ю) 10 км    9/0 верхняя 
[Ci]
+10.4 +1.1 52 +9  1021.1  0.2  751  291           
09 26.04.17 210 (ЮЗ) 6-14{15}  10 км    8/3 1000 м верхняя 
[Cu hum|Ci sp]
+15.4 -1.7 31 +15  1020.5  -0.4  750  286           
12 26.04.17 210 (ЮЗ) 6-14{17}  10 км    3/0 верхняя 
[Ci fib]
+17.8 -1.7 26 +18  1019.6  -0.7  750  284           
15 26.04.17 210 (ЮЗ) 5-13{15}  10 км    9/0 средняя, верхняя 
[Ac trans|Ci sp]
+17.1 +0.6 33 +17  1019.2  -0.4  750  284    +18.5       
18 26.04.17 190 (Ю) 4{15}  10 км    6/0 средняя, верхняя 
[Ac trans|Ci fib]
+13.2 -3.6 31 +13  1019.3  -0.2  749  288           
21 26.04.17 210 (ЮЗ) 5-10{10}  10 км    8/0 верхняя 
[Ci fib]
+11.6 -1.2 41 +11  1019.7  0.3  750  290           
00 27.04.17 220 (ЮЗ) 4{12}  10 км    3/0 верхняя 
[Ci fib]
+9.7 -2.2 43 +9  1020.3  0.4  750  292           
03 27.04.17 210 (ЮЗ) 5{10}  10 км    9/0 средняя, верхняя 
[Ac trans|Ci fib]
+8.2 -2.2 48 +7  1020.7  0.3  750  294  +8.1         
06 27.04.17 220 (ЮЗ) 4{12}  10 км    9/0 300 м верхняя 
[Ci sp]
+13.9 -0.9 36 +14  1020.8  0.5  751  288           
09 27.04.17 210 (ЮЗ) 5-10{14}  10 км    9/0 верхняя 
[Ci sp]
+18.4 -3.6 22 +19  1019.9  -0.5  750  284           
12 27.04.17 190 (Ю) 7-15{15}  10 км    8/0 верхняя 
[Ci sp]
+20.5 -3.3 20 +21  1018.8  -1  749  281           
15 27.04.17 180 (Ю) 5-10{15}  10 км    8/0 верхняя 
[Ci fib]
+20.3 -4.7 18 +20  1018.3  -0.6  749  281    +21.7       
18 27.04.17 180 (Ю) 2{13}  10 км    3/0 верхняя 
[Ci fib]
+15.9 -1.9 29 +17  1019.6  750  286           
21 27.04.17 200 (Ю) 10 км    3/0 верхняя 
[Ci fib]
+12.2 -0.9 40 +13  1020.1  0.3  750  289           
00 28.04.17 190 (Ю) 10 км    ясно 
+11 -1.2 43 +11  1020  -0.1  750  291           
Время (UTC), дата Ветер
(°,м/с) 
Видим.   Явления Облачность Т
(°С)
Тd
(°С)
f(%) Тe
(°С)
Pmin
(гПа)
dP
(гПа)
Po
(мм)
O2
(г/м3)
Тmin Tmax R s Состояние
почвы

Для получения пояснительной информации подведите курсор к названию столбца.

ПОГОДА в Елеце - архив

Всё, что Вы хотите узнать о погоде в Елеце - удобно и подробно!

Выберите нужную дату (начиная с 1 января 2015* года) и нажмите кнопку "Найти".
Будут отображены архивные сводки погоды по пункту Елец, начиная с указанной даты.


Отображать данные в формате CSV (для использования в таблицах Excel)


Внимание! Наш архив погоды предназначен исключительно для личного некоммерческого использования в познавательных целях. Если Вам необходимы официальные справки о состоянии погоды (для производственных, юридических, коммерческих и т.п. целей), обращайтесь в органы Росгидромета.

*Примечание: данная дата относится к архиву по метеостанциям СССР (Россия, СНГ, Балтия).
Архив по метеостанциям Зарубежной Европы и Азии (кроме Китая) хранится 10 дней, по другим регионам земного шара (Китай, Африка, Америка, Австралия, Океания) - 1 день.

Елец - район местоположения метеостанции


Название, широта, долгота, высота метеостанции:
Елец 52.6°ш. 38.5°д. 168 м над ур. моря [Российская Федерация]

Дополнительная информация

В oтличие oт бoльшинства пoгoдных сайтoв мы публикуем пoдрoбную метеoинфoрмацию в детальнoм прoфессиoнальнoм фoрмате.

Характеристики температуры и влажнoсти вoздуха измеряются на высoте 2 м в тени вдали oт зданий и деревьев.
Скoрoсть ветра измеряется на высoте 10 м (на урoвне рoста челoвека скoрoсть ветра ниже в 1.5-2 раза). Если метеoстанция нахoдится в гoрoде или в лесу, тo скoрoсть ветра занижена на 2-4 м/с пo сравнению с oткрытым местoм. Скoрoсть ветра над акватoриями крупных рек и oзёр, а также на вершинах хoлмoв на 2-5 м/с выше, чем в oбычных услoвиях.
Атмoсфернoе давление в разных тoчках местнoсти мoжет значительнo oтличаться oт давления на метеoстанции, в зависимoсти oт услoвий рельефа (при пoдъёме на 10 м давление пoнижается примернo на 1 мм рт.ст.).